(262363) = 2004 DY57 = 2006 TM86

Discovered at Kitt Peak on 2006-10-13 by Spacewatch.

Orbit

Orbit type: Main Belt

Note: WebGL enabled browser required.

epoch2024-03-31.0
epoch JD2460400.5
perihelion date2022-05-16.06705
perihelion JD2459715.56705
argument of perihelion (°)337.71402
ascending node (°)351.15256
inclination (°)3.63351
eccentricity0.1397200
perihelion distance (AU)2.1853286
Tisserand w.r.t. Jupiter3.4
ΔV w.r.t. Earth (km/sec)9.3
semimajor axis (AU)2.5402528
mean anomaly (°)166.73873
mean daily motion (°/day)0.24343800
aphelion distance (AU)2.895
period (years)4.05
P-vector [x]0.85608294
P-vector [y]-0.46411715
P-vector [z]-0.22741431
Q-vector [x]0.51674655
Q-vector [y]0.76032120
Q-vector [z]0.39355391
absolute magnitude16.79
phase slope0.15
uncertainty0
referenceMPEC 2024-C128
observations used593
oppositions14
arc length (days)7304
first opposition used2004
last opposition used2024
residual rms (arc-secs)0.72
perturbers coarse indicatorM-v
perturbers precise indicator003Ek
first observation date used2004-02-12.0
last observation date used2024-02-11.0
computer nameMPCLINUX
JD of orbit computation2456966.925216
perihelion JD uncertainty (days)1.0452E-04
argument of perihelion uncertainty (°)7.2895E-05
ascending node uncertainty (°)6.8813E-05
inclination uncertainty (°)5.0815E-06
eccentricity uncertainty 5.8199E-08
perihelion distance uncertainty (AU)1.5588E-07
Minimum Orbit Intersection Distances (in AU)
for orbit epoch: 2460200.5, reference: E2024-CC8
Mercury1.77193
Venus1.45765
Earth1.17392
Mars0.80189
Jupiter2.42296
Saturn6.27953
Uranus15.5619
Neptune27.364

Observations

607 total observations over interval: 2004 02 12.40689 – 2024 02 11.518816
These data are available for download (format description).

Date (UT) J2000 RA J2000 Dec Magn Location Ref
2004 02 12.40689 10 10 27.10 +13 40 05.9 21.1 V 691 – Steward Observatory, Kitt Peak-Spacewatch MPS 198189
2004 02 12.43518 10 10 25.47 +13 40 13.1 21.7 V 691 – Steward Observatory, Kitt Peak-Spacewatch MPS 198189
2004 02 12.46353 10 10 23.88 +13 40 20.3 21.9 V 691 – Steward Observatory, Kitt Peak-Spacewatch MPS 198189
2004 02 23.27516 10 00 06.63 +14 24 56.2 20.4   704 – Lincoln Laboratory ETS, New Mexico MPS 100746
2004 02 23.28908 10 00 05.92 +14 24 57.4 20.7   704 – Lincoln Laboratory ETS, New Mexico MPS 100746
2004 02 23.30059 10 00 05.12 +14 25 00.0 20.6   704 – Lincoln Laboratory ETS, New Mexico MPS 100746
2004 02 23.31455 10 00 04.32 +14 25 03.8 21.0   704 – Lincoln Laboratory ETS, New Mexico MPS 100746
2004 02 29.32295 09 54 29.73 +14 47 14.2 21.5 V 691 – Steward Observatory, Kitt Peak-Spacewatch MPS 100746
2004 02 29.35038 09 54 28.20 +14 47 20.1 21.5 V 691 – Steward Observatory, Kitt Peak-Spacewatch MPS 100746
2004 02 29.37945 09 54 26.56 +14 47 26.4 21.4 V 691 – Steward Observatory, Kitt Peak-Spacewatch MPS 100746
2004 03 20.11817 09 39 43.17 +15 35 45.8 21.9 V 691 – Steward Observatory, Kitt Peak-Spacewatch MPS 198189
2004 03 20.16789 09 39 41.47 +15 35 49.8 21.2 V 691 – Steward Observatory, Kitt Peak-Spacewatch MPS 198189
2004 03 20.19659 09 39 40.46 +15 35 51.9 21.7 V 691 – Steward Observatory, Kitt Peak-Spacewatch MPS 198189
2006 10 02.42713 03 13 26.47 +21 59 53.9 20.1 V G96 – Mt. Lemmon Survey MPS 185660
2006 10 02.43265 03 13 26.32 +21 59 54.2 20.0 V G96 – Mt. Lemmon Survey MPS 185660
2006 10 02.43829 03 13 26.18 +21 59 54.6 20.0 V G96 – Mt. Lemmon Survey MPS 185660
2006 10 02.44382 03 13 26.04 +21 59 54.8 19.9 V G96 – Mt. Lemmon Survey MPS 185660
2006 10 13.28617 03 07 28.46 +22 02 31.8   691 – Steward Observatory, Kitt Peak-Spacewatch MPS 183184
2006 10 13.30358 03 07 27.69 +22 02 31.0   691 – Steward Observatory, Kitt Peak-Spacewatch MPS 183184
2006 10 13.32101 03 07 26.92 +22 02 30.8   691 – Steward Observatory, Kitt Peak-Spacewatch MPS 183184
2006 10 17.36359 03 04 22.61 +21 59 08.0 20.3 V 691 – Steward Observatory, Kitt Peak-Spacewatch MPS 183184
2006 10 17.38108 03 04 21.74 +21 59 07.1 20.4 V 691 – Steward Observatory, Kitt Peak-Spacewatch MPS 183184
2006 10 17.39968 03 04 20.77 +21 59 05.4 20.2 V 691 – Steward Observatory, Kitt Peak-Spacewatch MPS 183184
2006 10 21.35009 03 00 58.63 +21 53 28.3 19.9 V 691 – Steward Observatory, Kitt Peak-Spacewatch MPS 184226
2006 10 21.37097 03 00 57.45 +21 53 26.0 20.0 V 691 – Steward Observatory, Kitt Peak-Spacewatch MPS 184227
2006 10 21.39186 03 00 56.28 +21 53 23.8 20.1 V 691 – Steward Observatory, Kitt Peak-Spacewatch MPS 184227
2006 10 27.31990 02 55 20.92 +21 40 50.7 20.0 V 703 – Catalina Sky Survey MPS 185660
2006 10 27.32633 02 55 20.46 +21 40 50.3 19.4 V 703 – Catalina Sky Survey MPS 185660
2006 10 27.33278 02 55 20.10 +21 40 49.8 19.6 V 703 – Catalina Sky Survey MPS 185660
2006 10 27.33922 02 55 19.63 +21 40 48.9 20.2 V 703 – Catalina Sky Survey MPS 185660
2006 11 08.34316 02 43 06.23 +21 02 56.8 19.2 R 644 – Palomar Mountain/NEAT MPS 190567
2006 11 08.36361 02 43 04.93 +21 02 52.2 19.2 R 644 – Palomar Mountain/NEAT MPS 190567
2006 11 08.38402 02 43 03.64 +21 02 47.5 19.4 R 644 – Palomar Mountain/NEAT MPS 190567
2006 11 11.36589 02 40 03.21 +20 51 31.8 19.2 V 703 – Catalina Sky Survey MPS 187128
2006 11 11.37373 02 40 02.78 +20 51 29.7 19.5 V 703 – Catalina Sky Survey MPS 187128
2006 11 11.38160 02 40 02.24 +20 51 28.1 19.6 V 703 – Catalina Sky Survey MPS 187128
2006 11 11.38943 02 40 01.81 +20 51 25.2 19.1 V 703 – Catalina Sky Survey MPS 187128
2006 11 14.17466 02 37 18.33 +20 40 31.7 19.4 V G96 – Mt. Lemmon Survey MPS 187128
2006 11 14.18071 02 37 17.97 +20 40 30.5 19.4 V G96 – Mt. Lemmon Survey MPS 187128
2006 11 14.18689 02 37 17.61 +20 40 29.1 19.5 V G96 – Mt. Lemmon Survey MPS 187128
2006 11 14.19315 02 37 17.25 +20 40 27.6 19.4 V G96 – Mt. Lemmon Survey MPS 187128
2006 11 18.26436 02 33 28.94 +20 24 10.1 19.6 V G96 – Mt. Lemmon Survey MPS 188793
2006 11 18.27181 02 33 28.51 +20 24 08.4 19.6 V G96 – Mt. Lemmon Survey MPS 188793
2006 11 18.27918 02 33 28.11 +20 24 06.5 19.6 V G96 – Mt. Lemmon Survey MPS 188793
2006 11 18.28660 02 33 27.68 +20 24 04.8 19.7 V G96 – Mt. Lemmon Survey MPS 188793
2006 11 19.19181 02 32 39.36 +20 20 25.7 19.3   704 – Lincoln Laboratory ETS, New Mexico MPS 188793
2006 11 19.20407 02 32 38.80 +20 20 23.9 19.8   704 – Lincoln Laboratory ETS, New Mexico MPS 188793
2006 11 19.22862 02 32 37.41 +20 20 18.0 19.8   704 – Lincoln Laboratory ETS, New Mexico MPS 188793
2006 11 19.24089 02 32 36.87 +20 20 13.5 20.4   704 – Lincoln Laboratory ETS, New Mexico MPS 188793
2008 01 11.45790 10 15 16.88 +13 49 01.1 21.3 V 691 – Steward Observatory, Kitt Peak-Spacewatch MPS 233434
2008 01 11.47554 10 15 16.41 +13 49 03.5 21.5 V 691 – Steward Observatory, Kitt Peak-Spacewatch MPS 233434
2008 01 11.49319 10 15 15.89 +13 49 06.4 21.8 V 691 – Steward Observatory, Kitt Peak-Spacewatch MPS 233434
2008 01 19.46235 10 10 52.72 +14 11 56.9 20.5 V 691 – Steward Observatory, Kitt Peak-Spacewatch MPS 235064
2008 01 19.48048 10 10 51.95 +14 11 59.5 21.0 V 691 – Steward Observatory, Kitt Peak-Spacewatch MPS 235064
2008 01 19.49886 10 10 51.21 +14 12 03.0 20.7 V 691 – Steward Observatory, Kitt Peak-Spacewatch MPS 235064
2008 02 07.20127 09 55 38.70 +15 23 39.4 21.1 V 691 – Steward Observatory, Kitt Peak-Spacewatch MPS 236325
2008 02 07.21888 09 55 37.73 +15 23 43.7 20.8 V 691 – Steward Observatory, Kitt Peak-Spacewatch MPS 236325
2008 02 07.23651 09 55 36.72 +15 23 48.4 21.2 V 691 – Steward Observatory, Kitt Peak-Spacewatch MPS 236325
2008 02 13.22607 09 49 52.35 +15 48 10.9 19.9 V G96 – Mt. Lemmon Survey MPS 237612
2008 02 13.23089 09 49 52.06 +15 48 12.1 20.5 V G96 – Mt. Lemmon Survey MPS 237612
2008 02 13.23565 09 49 51.81 +15 48 13.7 20.1 V G96 – Mt. Lemmon Survey MPS 237612
2008 02 13.24042 09 49 51.52 +15 48 14.5 20.2 V G96 – Mt. Lemmon Survey MPS 237612
2008 02 14.26370 09 48 51.94 +15 52 18.5 20.6 V G96 – Mt. Lemmon Survey MPS 237612
2008 02 14.27048 09 48 51.55 +15 52 20.0 20.5 V G96 – Mt. Lemmon Survey MPS 237612
2008 02 14.27719 09 48 51.12 +15 52 21.9 20.9 V G96 – Mt. Lemmon Survey MPS 237612
2008 02 14.28405 09 48 50.72 +15 52 23.8 20.8 V G96 – Mt. Lemmon Survey MPS 237612
2008 03 13.11489 09 25 12.17 +17 12 21.6 21.1 V 691 – Steward Observatory, Kitt Peak-Spacewatch MPS 242175
2008 03 13.12562 09 25 11.83 +17 12 21.9 20.4 V 691 – Steward Observatory, Kitt Peak-Spacewatch MPS 242175
2008 03 13.13636 09 25 11.35 +17 12 23.4 20.9 V 691 – Steward Observatory, Kitt Peak-Spacewatch MPS 242175
2008 04 30.16146 09 23 39.51 +16 14 56.9 22.3 V G96 – Mt. Lemmon Survey MPS 248179
2008 04 30.16995 09 23 39.73 +16 14 55.0 21.6 V G96 – Mt. Lemmon Survey MPS 248179
2008 04 30.17839 09 23 40.02 +16 14 53.1 21.8 V G96 – Mt. Lemmon Survey MPS 248179
2008 04 30.18677 09 23 40.27 +16 14 51.5 22.0 V G96 – Mt. Lemmon Survey MPS 248179
2010 10 13.28378 02 34 58.90 +19 28 31.6 20.0 V 703 – Catalina Sky Survey MPS 351290
2010 10 13.29073 02 34 58.51 +19 28 29.2 19.4 V 703 – Catalina Sky Survey MPS 351290
2010 10 13.29771 02 34 58.26 +19 28 30.0 19.0 V 703 – Catalina Sky Survey MPS 351290
2010 10 13.30470 02 34 57.75 +19 28 28.7 20.4 V 703 – Catalina Sky Survey MPS 351290
2010 10 14.556699 02 33 53.141 +19 26 11.72 19.59 i F51 – Pan-STARRS 1, Haleakala MPS 365629
2010 10 14.568201 02 33 52.511 +19 26 10.38 19.63 i F51 – Pan-STARRS 1, Haleakala MPS 365629
2010 10 27.93903 02 21 06.01 +18 48 46.2 19.0 V J75 – OAM Observatory, La Sagra MPS 351290
2010 10 27.95338 02 21 05.12 +18 48 43.7 19.4 V J75 – OAM Observatory, La Sagra MPS 351290
2010 10 27.96772 02 21 04.17 +18 48 41.1 19.0 V J75 – OAM Observatory, La Sagra MPS 351290
2010 10 28.25560 02 20 46.78 +18 47 39.5 19.2 V 703 – Catalina Sky Survey MPS 353824
2010 10 28.25734 02 20 46.78 +18 47 40.4 19.0 V 703 – Catalina Sky Survey MPS 351290
2010 10 28.26313 02 20 46.46 +18 47 39.7 19.3 V 703 – Catalina Sky Survey MPS 353824
2010 10 28.26487 02 20 46.42 +18 47 38.1 18.6 V 703 – Catalina Sky Survey MPS 351290
2010 10 28.27060 02 20 45.92 +18 47 38.9 19.4 V 703 – Catalina Sky Survey MPS 353824
